Location: Cussy
(47.0410°N, 4.6412°E)
Time: 01:23:28
(UTC+00:00)

SL-16 R/B - Visible Passes

Search period start: 15 April 2021 00:00
Search period end: 25 April 2021 00:00
Orbit: 839 x 850 km, 71.0° (Epoch: 14 April)

Date Brightness Start Highest point End Pass type
(mag) Time Alt. Az. Time Alt. Az. Time Alt. Az.
15 Apr 3.1 21:12:50 10° NNW 21:18:05 36° NE 21:19:01 34° ENE visible
15 Apr 3.3 22:56:57 10° NW 23:00:54 36° WNW 23:00:54 36° WNW visible
16 Apr 3.1 20:58:44 10° NNW 21:03:56 35° NE 21:05:17 31° E visible
16 Apr 3.1 22:42:48 10° NW 22:47:10 40° W 22:47:10 40° W visible
17 Apr 3.2 20:44:37 10° NNW 20:49:48 34° NE 20:51:34 28° E visible
17 Apr 2.9 22:28:40 10° NW 22:33:27 44° W 22:33:27 44° W visible
18 Apr 3.2 20:30:31 10° NNW 20:35:39 33° NE 20:37:53 25° E visible
18 Apr 2.8 22:14:31 10° NW 22:19:46 47° WSW 22:19:46 47° WSW visible
19 Apr 3.2 20:16:25 10° NNW 20:21:30 32° NE 20:24:13 22° E visible
19 Apr 2.7 22:00:23 10° NW 22:05:50 48° WSW 22:06:06 48° WSW visible
20 Apr 3.3 20:02:18 10° NNW 20:07:22 32° NE 20:10:35 19° E visible
20 Apr 2.6 21:46:14 10° NW 21:51:44 50° WSW 21:52:28 47° SW visible
21 Apr 3.3 19:48:12 10° NNW 19:53:13 31° NE 19:56:59 16° ESE visible
21 Apr 2.7 21:32:06 10° NW 21:37:36 52° WSW 21:38:52 43° SSW visible
22 Apr 3.3 19:34:05 10° NNW 19:39:05 30° NE 19:43:25 13° ESE visible
22 Apr 2.7 21:17:58 10° NW 21:23:30 53° WSW 21:25:19 38° SSW visible
23 Apr 3.4 19:20:00 10° N 19:24:56 29° NE 19:29:50 10° ESE visible
23 Apr 2.6 21:03:50 10° NW 21:09:23 55° WSW 21:11:47 32° S visible
24 Apr 2.6 20:49:42 10° NW 20:55:16 57° WSW 20:58:17 27° S visible
